Location: Casa Rossa
(45.2389°N, 12.2056°E)
Time: 23:49:43
(UTC+00:00)

Meteor 1-14 Rocket - Pass Details

Date: 14 July 2020
Orbit: 835 x 918 km, 81.3° (Epoch: 14 August)

Event Time Altitude Azimuth Distance (km) Brightness Sun altitude
Exits shadow 00:22:32 40° 163° (SSE) 1,235 4.6 -21.5°
Maximum altitude 00:24:31 66° 97° (E) 924 4.4 -21.4°
Drops below altitude 10° 00:30:08 10° 16° (NNE) 2,506 7.8 -21.1°
Sets 00:32:36 0° 14° (NNE) 3,459 8.9 -21.0°
